Location: Raven Hill Discovery Center
(45.1336°N, 85.0553°W)
Time: 15:30:40
(UTC-05:00)

Daily predictions for brighter satellites

Satellite Brightness Start Highest point End
(mag) Time Altitude Azimuth Time Altitude Azimuth Time Altitude Azimuth
Cosmos 1484 Rocket 3.4 17:26:55 10° SE 17:30:38 38° ENE 17:34:22 10° N
Meteor 1-12 Rocket 4.4 17:27:24 10° NNW 17:33:08 87° W 17:38:56 10° S
Cosmos 2150 Rocket 4.4 17:27:41 10° SSW 17:33:08 75° WNW 17:38:36 10° NNE
Okean 1 3.7 17:31:16 10° SSW 17:35:12 66° W 17:39:10 10° N
USA 161 1.7 17:36:17 10° N 17:39:15 77° WNW 17:42:17 10° SSW
CSL-04 Debris 4.3 17:34:05 10° SE 17:39:20 55° ENE 17:44:36 10° N
SMAP 3.3 17:35:12 10° SE 17:39:39 48° ENE 17:44:08 10° N
Cosmos 2263 Rocket 4.0 17:43:05 10° NNE 17:44:17 11° NE 17:45:30 10° NE
Meteor 2-4 Rocket 3.9 17:41:17 10° SSE 17:46:26 46° E 17:51:31 10° NNE
Gblst 52 Del rocket 4.2 17:41:48 10° WNW 17:47:19 67° NNE 17:53:17 10° ESE
Cosmos 2278 3.9 17:47:18 10° S 17:52:49 56° ESE 17:58:24 10° NNE
Cosmos 2369 3.8 17:47:29 10° S 17:53:03 59° ESE 17:58:40 10° NNE
CSL-04 Rocket 3.7 17:47:42 10° SSE 17:53:08 79° ENE 17:58:41 10° NNW
Meteor 1-28 Rocket 3.7 17:50:39 10° NNE 17:54:13 40° E 17:57:47 10° SSE
Cosmos 1975 4.3 17:51:09 10° NNW 17:54:58 41° W 17:58:48 10° SSW
Cosmos 1455 Rocket 3.1 17:50:54 10° N 17:55:21 86° W 17:59:44 10° S
ALOS 3.4 17:52:16 10° ESE 17:55:51 22° ENE 17:59:27 10° NNE
Ariane Rocket 2.9 17:51:01 10° SSE 17:56:03 72° ENE 18:01:06 10° N
Cosmos 2266 Rocket 4.0 17:51:08 10° N 17:57:10 59° ENE 18:03:15 10° SSE
USA 238 DEB 4.3 17:51:14 10° NW 17:58:17 67° WSW 18:05:24 10° SSE
USA 238 4.3 17:51:20 10° NW 17:58:23 68° WSW 18:05:30 10° SSE
USA 116 4.1 17:57:21 12° NE 17:59:49 27° E 18:02:31 10° SSE
Cosmos 1544 Rocket 3.8 17:55:34 10° NNW 17:59:54 71° W 18:04:12 10° S
SPOT 3 Rocket 4.4 17:55:55 10° ESE 18:00:11 27° ENE 18:04:28 10° N
Cosmos 724 4.4 17:57:36 10° NW 18:03:25 82° WSW 18:09:14 10° SSE
Cosmos 2251 Rocket 4.5 18:01:06 10° N 18:05:26 25° NE 18:09:44 10° ESE
Cosmos 1697 Rocket 3.1 18:00:18 10° S 18:05:36 44° ESE 18:10:37 11° NE
RESURS DK-1 4.2 18:04:34 10° SE 18:06:41 14° ESE 18:07:11 14° E
Meteor 1-13 Rocket 4.3 18:01:25 10° S 18:07:02 89° ESE 18:12:49 10° N
IRAS Rocket 4.4 18:02:05 10° SSE 18:07:34 80° WSW 18:13:05 10° NNW
Cosmos 1743 4.0 18:04:06 10° NNW 18:07:50 44° W 18:11:31 10° SSW
YAOGAN 1 2.7 18:04:46 10° SE 18:08:55 48° ENE 18:13:06 10° N
Cosmos 1125 Rocket 3.5 18:04:49 10° SSW 18:10:07 78° ESE 18:15:25 10° NNE
Cosmos 1269 Rocket 4.0 18:05:10 10° NNW 18:10:30 78° ENE 18:15:48 10° SSE
NOSS 5 (C) 4.4 18:12:04 10° SW 18:15:47 77° NW 18:17:59 19° NNE
Cosmos 1048 Rocket 4.2 18:10:34 10° NNW 18:15:58 78° WSW 18:21:20 10° SSE
Cosmos 372 Rocket 3.9 18:11:53 10° SSW 18:17:06 85° ESE 18:22:18 10° NNE
ERS-2 2.8 18:16:00 10° SE 18:19:17 32° ENE 18:22:35 10° N
Cosmos 2082 4.2 18:14:18 10° NNW 18:19:52 64° WSW 18:25:25 10° SSE
Meteor 1-15 Rocket 4.3 18:17:09 10° N 18:23:05 67° ENE 18:28:56 10° SSE
Landsat 4 4.1 18:20:58 17° NNE 18:23:39 43° E 18:27:17 10° S
SJ 16-02 1.5 18:20:01 10° SSW 18:24:24 77° WNW 18:28:50 10° NNE
COSMO-SKYMED 1 3.0 18:20:59 14° NNE 18:24:25 40° E 18:28:30 10° SSE
PSLV R/B 4.2 18:21:54 10° WSW 18:24:53 38° S 18:26:40 19° ESE
NOSS 3-2 (A) 4.2 18:18:15 10° NW 18:25:46 78° SW 18:33:57 10° SSE
CORIOLIS 4.4 18:22:46 10° S 18:28:10 73° WSW 18:33:34 10° NNW
CZ-4 R/B 1.5 18:24:17 10° S 18:28:10 74° WSW 18:32:10 10° NNW
Cosmos 2227 Rocket 3.5 18:24:35 10° NW 18:29:54 43° WSW 18:35:11 10° S
Abrixas rocket 2.6 18:29:57 10° WNW 18:33:06 45° N 18:33:51 37° NE
NOSS 3-2 (C) 4.1 18:27:17 10° NW 18:34:49 86° SW 18:43:03 10° SSE
ATLAS 3B R/B 4.1 18:29:42 10° NW 18:35:47 39° WSW 18:41:43 10° S
Meteor 2-11 Rocket 4.4 18:33:11 10° S 18:39:12 61° E 18:45:15 10° NNE
ATLAS 2AS CENTAUR R/B 3.9 18:35:29 10° WSW 18:43:02 45° NW 18:50:03 13° NNE
Cosmos 1025 Rocket 2.9 18:41:02 10° S 18:45:18 69° E 18:48:17 19° NNE
Gbstr 26 Del rocket 4.4 18:38:08 10° WSW 18:46:14 89° SSE 18:50:32 28° ENE
Cosmos 1980 Rocket 2.3 18:41:58 10° S 18:47:30 56° ESE 18:50:26 27° NE
Cosmos 2084 3.2 18:45:22 10° SSW 18:49:31 76° SE 18:50:39 45° NE
USA 215 3.9 18:43:41 10° SSE 18:50:04 55° SW 18:56:29 10° WNW
Okean 2 3.2 18:46:54 10° S 18:50:58 81° E 18:53:31 22° NNE
Cosmos 1656 4.2 18:47:17 10° SW 18:52:44 56° WNW 18:57:26 14° NNE
Cosmos 1066 Rocket 4.4 18:48:29 10° SSE 18:53:41 45° E 18:55:35 32° NE
SKYMED 3 4.4 18:51:24 19° NNE 18:54:34 85° ESE 18:58:54 10° SSW
Cosmos 2297 Rocket 4.1 18:51:04 10° NW 18:55:59 31° WSW 19:00:53 10° SSW
Cosmos 1553 Rocket 4.2 18:50:25 10° SSE 18:56:29 46° E 19:01:01 18° NNE
CZ-2C R/B 4.3 18:52:10 10° N 18:56:49 59° WNW 19:01:28 10° SSW
SL-24 R/B - RUBIN 2 4.2 18:52:27 10° SSW 18:58:37 77° ESE 19:01:12 34° NE
Okean 1-7 Rocket 3.4 18:55:30 10° S 18:59:53 75° E 19:01:59 31° NNE
Cosmos 1417 Rocket 4.5 18:53:58 10° SSE 18:59:57 56° E 19:05:34 12° NNE
NOSS 3-4 (A) 3.5 18:57:41 10° SW 19:03:56 84° NW 19:07:29 29° NE
NOSS 3-4 (C) 3.5 18:57:46 10° SW 19:04:01 85° NW 19:07:33 29° NE
NOAA 12 4.0 18:59:29 10° SSE 19:04:45 89° ENE 19:10:02 10° NNW
Cosmos 1745 Rocket 4.1 19:01:46 10° N 19:07:48 50° ENE 19:13:51 10° SSE
NOSS 2-2 (D) 4.0 19:07:18 10° SSW 19:10:22 42° SSE 19:10:22 42° SSE
SKYMED 2 4.0 19:09:36 20° N 19:12:33 62° WNW 19:16:49 10° SSW
DMSP B5D1-3 4.4 19:12:04 34° NNE 19:14:22 77° ESE 19:19:29 10° S
CENTAUR R/B 3.0 19:06:44 10° NW 19:14:37 80° NE 19:22:17 13° SE
DNEPR-1 R/B 4.4 19:09:57 10° NW 19:15:04 69° WSW 19:21:17 10° SSE
Cosmos 1606 Rocket 3.4 19:11:47 10° N 19:16:09 89° WSW 19:20:28 10° S
Cosmos 2227 4.1 19:13:10 10° NNW 19:18:57 88° ENE 19:24:25 11° SSE
Cosmos 2344 4.1 19:15:33 10° S 19:22:06 35° ESE 19:22:06 35° ESE
NOSS 2-2 (E) 3.7 19:22:23 10° SSW 19:25:39 60° SSW 19:25:39 60° SSW
FENGYUN 3A 4.2 19:21:14 10° S 19:26:31 59° W 19:31:50 10° NNW
Lacrosse 5 rocket 3.5 19:24:05 10° S 19:25:21 17° S 19:25:21 17° S
Cosmos 2263 Rocket 3.0 19:24:18 10° NNW 19:27:54 35° N 19:27:54 35° N
BREEZE-M DEB (TANK) 3.5 19:27:39 10° WNW 19:30:38 62° N 19:30:38 62° N
SL-16 R/B 3.2 19:26:20 10° S 19:29:37 31° SSE 19:29:37 31° SSE
ALOS 3.4 19:28:34 10° S 19:33:01 44° W 19:37:30 10° NNW
NOSS 2-2 (C) 4.2 19:29:37 10° SSW 19:32:19 44° SSW 19:32:19 44° SSW
Cosmos 2322 Rocket 3.3 19:29:57 10° S 19:32:59 30° SSE 19:32:59 30° SSE
RESURS DK-1 3.5 19:40:09 10° SW 19:43:08 42° WSW 19:43:08 42° WSW
Cosmos 2251 Rocket 4.3 19:42:55 10° NNW 19:48:01 50° WSW 19:53:03 10° S
Cosmos 1697 Rocket 4.2 19:44:39 10° WSW 19:49:42 32° NW 19:52:23 22° N
COSMOS 2455 4.2 19:52:00 10° NNW 19:54:54 27° N 19:54:54 27° N
SJ 16-02 4.4 20:03:19 10° WNW 20:03:49 10° NW 20:04:18 10° NW
S3M 4.4 20:03:20 10° SSW 20:09:20 57° WNW 20:11:13 41° NNW
Cosmos 1980 Rocket 3.9 20:27:04 10° WSW 20:31:51 27° NW 20:32:14 27° NW
